N1EDZ Weather Reports


time (UTC)temp
C
wind
direction
speed
KPH
gust
KPH
rain 1hr
cm
rain 24hr
cm
rain mn
cm
humidity
%
barometer
mb
20260507045246 10 0 0.0 0.0 0.00 0.00 0.00 100 1008.0
20260507044746 10 0 0.0 0.0 0.00 0.00 0.00 99 1008.0
20260507044246 10 107 0.0 0.0 0.00 0.00 0.00 99 1008.0
20260507043747 10 0 0.0 0.0 0.00 0.00 0.00 100 1008.0
20260507043247 10 149 0.0 1.6 0.00 0.00 0.00 100 1008.0
20260507042746 10 0 0.0 0.0 0.00 0.00 0.00 100 1008.0
20260507042246 10 136 1.6 3.2 0.00 0.00 0.00 100 1008.0
20260507041747 10 0 0.0 0.0 0.00 0.00 0.00 100 1008.0
20260507041247 10 0 0.0 0.0 0.00 0.00 0.00 100 1008.0
20260507040749 10 106 1.6 3.2 0.00 0.00 0.00 99 1008.0
20260507040246 10 0 0.0 0.0 0.00 0.00 0.00 100 1008.0
20260507035746 11 0 0.0 0.0 0.00 0.00 0.89 100 1008.0
20260507035248 11 0 0.0 0.0 0.00 0.00 0.86 99 1008.0
20260507034746 11 0 0.0 0.0 0.00 0.00 0.86 100 1008.0
20260507034246 11 0 0.0 0.0 0.00 0.00 0.86 99 1008.0
20260507033746 11 0 0.0 0.0 0.00 0.00 0.86 99 1008.0
20260507033246 11 0 0.0 0.0 0.00 0.00 0.86 99 1008.0
20260507032746 11 0 0.0 0.0 0.00 0.00 0.86 99 1008.0
20260507032246 11 0 0.0 0.0 0.05 0.00 0.84 98 1008.0
20260507031746 11 0 0.0 0.0 0.41 0.00 0.81 98 1008.0
20260507031247 11 0 0.0 0.0 0.00 0.00 0.81 97 1008.0
20260507030746 12 330 0.0 1.6 0.00 0.00 0.79 97 1008.0
20260507030247 12 321 1.6 3.2 0.00 0.00 0.79 97 1008.0
20260507025747 12 322 0.0 0.0 0.08 0.00 0.79 97 1008.0
20260507025247 13 0 0.0 0.0 0.00 0.00 0.76 99 1008.0
20260507024746 13 0 0.0 0.0 0.03 0.00 0.76 100 1008.0
20260507024247 13 0 0.0 0.0 0.05 0.00 0.76 99 1008.0
20260507023747 13 0 0.0 0.0 0.00 0.00 0.76 99 1008.0
20260507023247 13 0 0.0 0.0 0.00 0.00 0.76 99 1008.0
20260507022746 13 137 0.0 3.2 0.00 0.00 0.76 99 1007.0
20260507022247 13 0 0.0 0.0 0.00 0.00 0.76 98 1007.0
20260507021746 13 150 0.0 0.0 0.00 0.00 0.76 99 1007.0
20260507021246 13 0 0.0 0.0 0.00 0.00 0.76 99 1007.0
20260507020746 14 183 1.6 3.2 0.00 0.00 0.76 99 1007.0
20260507020246 14 0 0.0 0.0 0.00 0.00 0.76 99 1007.0
20260507015746 14 170 0.0 1.6 0.00 0.00 0.76 99 1007.0
20260507015246 14 0 0.0 0.0 0.00 0.00 0.76 100 1007.0
20260507014747 14 0 0.0 0.0 0.00 0.00 0.76 100 1007.0
20260507014246 14 0 0.0 0.0 0.00 0.00 0.76 100 1007.0
20260507013746 14 296 3.2 4.8 0.00 0.00 0.76 100 1007.0
20260507013246 14 0 0.0 0.0 0.00 0.00 0.76 100 1007.0
20260507012746 14 210 1.6 6.4 0.00 0.00 0.76 100 1007.0
20260507012247 14 136 3.2 4.8 0.00 0.00 0.76 100 1007.0
20260507011746 14 185 3.2 6.4 0.00 0.00 0.76 100 1007.0
20260507011247 14 56 0.0 3.2 0.00 0.00 0.76 100 1007.0
20260507010746 14 172 3.2 6.4 0.00 0.00 0.76 100 1006.0
20260507010246 14 147 6.4 9.7 0.00 0.00 0.76 100 1006.0
20260507005747 14 161 3.2 3.2 0.00 0.00 0.76 100 1007.0
20260507005246 14 106 0.0 0.0 0.00 0.00 0.76 100 1006.0
20260507004746 14 143 4.8 8.0 0.00 0.00 0.76 100 1007.0
20260507004246 14 141 1.6 4.8 0.00 0.00 0.76 100 1007.0
20260507003748 14 189 3.2 4.8 0.00 0.00 0.76 100 1007.0
20260507003246 14 181 0.0 3.2 0.00 0.00 0.76 100 1007.0
20260507002746 14 173 1.6 3.2 0.00 0.00 0.76 100 1007.0
20260507002246 14 144 1.6 4.8 0.00 0.00 0.76 100 1007.0
20260507001746 14 172 4.8 6.4 0.00 0.00 0.76 100 1006.0
20260507001246 14 121 3.2 4.8 0.00 0.00 0.76 100 1007.0
20260507000746 14 133 1.6 3.2 0.00 0.00 0.76 100 1006.0
20260507000246 14 121 3.2 4.8 0.00 0.00 0.76 100 1006.0
20260506235746 14 165 3.2 6.4 0.00 0.00 0.76 100 1006.0
20260506235247 14 150 1.6 3.2 0.00 0.00 0.76 100 1006.0
20260506234747 14 157 6.4 9.7 0.00 0.00 0.76 100 1006.0
20260506234247 14 166 8.0 9.7 0.00 0.00 0.76 99 1006.0
20260506233747 14 166 0.0 0.0 0.00 0.00 0.76 100 1006.0
20260506233246 14 155 4.8 6.4 0.00 0.00 0.76 99 1006.0
20260506232747 14 175 1.6 4.8 0.00 0.00 0.76 99 1006.0
20260506232247 14 153 1.6 3.2 0.00 0.00 0.81 100 1006.0
20260506231747 14 141 0.0 1.6 0.00 0.00 0.81 100 1006.0
20260506231246 14 197 0.0 3.2 0.00 0.00 0.81 100 1006.0
20260506230746 14 107 0.0 1.6 0.00 0.00 0.81 99 1006.0
20260506230246 14 195 1.6 3.2 0.00 0.00 0.81 100 1006.0
20260506225747 14 191 1.6 3.2 0.00 0.00 0.81 100 1006.0
20260506225246 14 104 3.2 4.8 0.00 0.00 0.81 100 1006.0
20260506224746 14 0 0.0 0.0 0.00 0.00 0.79 100 1006.0
20260506224246 14 162 3.2 4.8 0.00 0.00 0.79 100 1006.0
20260506223746 14 179 1.6 4.8 0.03 0.00 0.79 100 1006.0
20260506223247 14 134 1.6 3.2 0.10 0.00 0.76 100 1006.0
20260506222747 14 126 1.6 3.2 0.30 0.00 0.76 100 1006.0
20260506222246 14 162 3.2 4.8 0.10 0.00 0.76 100 1006.0
20260506221746 14 0 0.0 0.0 0.00 0.00 0.76 100 1006.0
20260506221247 14 252 0.0 0.0 0.43 0.00 0.74 100 1006.0
20260506220747 14 136 1.6 4.8 0.58 0.00 0.69 100 1006.0
20260506220247 14 185 1.6 1.6 0.28 0.00 0.69 100 1006.0
20260506215746 14 148 0.0 0.0 0.00 0.00 0.66 100 1006.0
20260506215247 14 168 1.6 3.2 0.10 0.00 0.66 99 1006.0
20260506214747 14 37 0.0 3.2 0.00 0.00 0.66 99 1006.0
20260506214247 14 192 3.2 3.2 0.43 0.00 0.66 99 1006.0
20260506213746 14 112 0.0 0.0 0.00 0.00 0.64 99 1006.0
20260506213246 14 192 3.2 6.4 0.05 0.00 0.64 99 1006.0
20260506212746 14 184 4.8 8.0 0.41 0.00 0.61 99 1006.0
20260506212246 14 187 3.2 3.2 0.03 0.00 0.61 99 1006.0
20260506211746 14 0 0.0 0.0 0.30 0.00 0.61 99 1006.0
20260506211247 14 102 3.2 4.8 0.38 0.00 0.58 99 1006.0
20260506210747 14 152 4.8 6.4 0.08 0.00 0.56 99 1006.0
20260506210246 14 166 3.2 9.7 0.00 0.00 0.56 99 1006.0
20260506205746 14 201 0.0 3.2 0.00 0.00 0.56 99 1006.0
20260506205247 14 84 1.6 3.2 0.03 0.00 0.56 99 1006.0
20260506204747 14 148 3.2 4.8 0.03 0.00 0.53 99 1007.0
20260506204247 14 184 4.8 9.7 0.00 0.00 0.53 99 1007.0
20260506203746 14 173 1.6 3.2 0.05 0.00 0.51 99 1007.0
20260506203247 14 176 3.2 4.8 0.00 0.00 0.51 99 1007.0
20260506202746 14 171 0.0 0.0 0.30 0.00 0.51 99 1007.0
20260506202246 14 168 0.0 3.2 0.05 0.00 0.53 99 1007.0
20260506201752 14 0 0.0 0.0 0.18 0.00 0.51 99 1007.0
20260506201247 14 182 4.8 6.4 0.33 0.00 0.51 99 1007.0
20260506200748 14 0 0.0 0.0 0.08 0.00 0.46 99 1007.0
20260506200246 14 189 1.6 3.2 0.30 0.00 0.43 98 1007.0
20260506195746 14 154 1.6 3.2 0.33 0.00 0.41 98 1007.0
20260506195248 14 221 3.2 4.8 0.43 0.00 0.38 98 1007.0
20260506194751 15 331 1.6 3.2 0.00 0.00 0.36 98 1007.0
20260506194247 15 115 1.6 4.8 0.30 0.00 0.36 97 1007.0
20260506193750 15 162 6.4 11.3 0.13 0.00 0.33 97 1007.0
20260506193249 15 328 0.0 0.0 0.00 0.00 0.30 97 1007.0
20260506192750 15 172 1.6 1.6 0.05 0.00 0.30 96 1007.0
20260506192247 15 103 1.6 3.2 0.03 0.00 0.33 97 1007.0
20260506191750 15 121 3.2 4.8 0.00 0.00 0.33 96 1007.0
20260506191247 15 195 3.2 4.8 0.00 0.00 0.33 96 1007.0
20260506190746 15 139 3.2 3.2 0.00 0.00 0.33 96 1007.0
20260506190254 15 168 0.0 3.2 0.00 0.00 0.30 96 1007.0
20260506185747 15 0 0.0 0.0 0.00 0.00 0.30 96 1007.0
20260506185249 15 216 1.6 4.8 0.13 0.00 0.30 96 1007.0
20260506184747 15 137 3.2 6.4 0.38 0.00 0.30 95 1007.0
20260506184247 15 228 0.0 3.2 0.18 0.00 0.25 95 1007.0
20260506183747 15 174 3.2 6.4 0.08 0.00 0.23 94 1007.0
20260506182800 15 210 3.2 4.8 0.03 0.00 0.23 96 1007.0
20260506182246 15 233 0.0 3.2 0.05 0.00 0.28 97 1007.0
20260506181746 15 219 3.2 4.8 0.13 0.00 0.28 95 1007.0
20260506181247 15 29 0.0 3.2 0.18 0.00 0.25 95 1007.0
20260506180747 15 231 3.2 4.8 0.18 0.00 0.23 96 1008.0
20260506180247 15 153 4.8 8.0 0.13 0.00 0.20 95 1008.0
20260506175746 15 239 1.6 6.4 0.10 0.00 0.20 95 1008.0
20260506175247 15 187 1.6 3.2 0.33 0.00 0.20 94 1008.0
20260506174746 16 195 3.2 6.4 0.28 0.00 0.15 93 1008.0
20260506174247 16 161 4.8 6.4 0.25 0.00 0.13 91 1008.0
20260506173747 16 175 1.6 4.8 0.10 0.00 0.10 91 1008.0
20260506173247 16 164 0.0 3.2 0.18 0.00 0.10 91 1008.0
20260506172746 16 153 3.2 6.4 0.15 0.00 0.08 89 1009.0
20260506172248 16 168 1.6 3.2 0.10 0.00 0.08 89 1009.0
20260506171747 17 159 3.2 8.0 0.13 0.00 0.05 86 1009.0
20260506171250 17 220 0.0 1.6 0.08 0.00 0.03 84 1009.0
20260506170747 18 242 4.8 9.7 0.08 0.00 0.03 81 1009.0
20260506170247 18 232 1.6 6.4 0.20 0.00 0.00 77 1008.0
20260506165747 19 204 4.8 9.7 0.08 0.00 0.00 74 1008.0
20260506165247 19 164 4.8 11.3 0.00 0.00 0.00 72 1008.0
20260506164748 19 197 0.0 3.2 0.00 0.00 0.00 72 1008.0
20260506164247 19 284 3.2 6.4 0.00 0.00 0.00 72 1008.0
20260506163747 18 183 6.4 11.3 0.00 0.00 0.00 72 1008.0
20260506163247 19 184 3.2 6.4 0.00 0.00 0.00 72 1008.0
20260506162746 19 205 3.2 4.8 0.00 0.00 0.00 72 1008.0
20260506162246 19 176 4.8 8.0 0.00 0.00 0.00 72 1009.0
20260506161747 18 162 6.4 12.9 0.00 0.00 0.00 72 1008.0
20260506161247 18 256 4.8 14.5 0.00 0.00 0.00 72 1009.0
20260506160746 18 166 3.2 12.9 0.00 0.00 0.00 73 1009.0
20260506160253 18 191 4.8 9.7 0.00 0.00 0.00 72 1009.0
20260506155748 19 253 4.8 12.9 0.00 0.00 0.00 72 1009.0
20260506155247 18 246 0.0 0.0 0.00 0.00 0.00 73 1009.0
20260506154747 18 216 3.2 6.4 0.00 0.00 0.00 73 1009.0
20260506154246 18 159 4.8 8.0 0.00 0.00 0.00 73 1009.0
20260506153746 18 236 3.2 6.4 0.00 0.00 0.00 72 1009.0
20260506153247 18 299 3.2 4.8 0.00 0.00 0.00 73 1009.0
20260506152747 18 162 4.8 8.0 0.00 0.00 0.00 73 1009.0
20260506152247 18 224 4.8 9.7 0.00 0.00 0.00 73 1009.0
20260506151746 18 166 6.4 14.5 0.00 0.00 0.00 74 1009.0
20260506151247 18 236 1.6 6.4 0.00 0.00 0.00 74 1009.0
20260506150747 18 148 6.4 11.3 0.00 0.00 0.00 74 1009.0
20260506150247 18 201 1.6 4.8 0.00 0.00 0.00 74 1009.0
20260506145747 18 158 0.0 3.2 0.00 0.00 0.00 74 1009.0
20260506145246 18 152 3.2 9.7 0.00 0.00 0.00 75 1009.0
20260506144746 18 306 0.0 3.2 0.00 0.00 0.00 74 1009.0
20260506144247 18 169 4.8 9.7 0.00 0.00 0.00 75 1009.0
20260506143746 18 57 1.6 6.4 0.00 0.00 0.00 75 1009.0
20260506143247 18 182 3.2 6.4 0.00 0.00 0.00 75 1009.0
20260506142747 18 234 1.6 6.4 0.00 0.00 0.00 74 1009.0
20260506142247 18 287 1.6 3.2 0.00 0.00 0.00 75 1009.0
20260506141746 18 118 1.6 4.8 0.00 0.00 0.00 75 1010.0
20260506141247 18 195 1.6 4.8 0.00 0.00 0.00 74 1009.0
20260506140747 18 172 3.2 6.4 0.00 0.00 0.00 75 1009.0
20260506135914 18 299 3.2 9.7 0.00 0.00 0.00 76 1009.0
20260506135247 18 122 3.2 4.8 0.00 0.00 0.00 76 1009.0
20260506134747 18 147 4.8 12.9 0.00 0.00 0.00 77 1009.0
20260506134246 17 159 6.4 11.3 0.00 0.00 0.00 77 1009.0
20260506133746 17 165 4.8 11.3 0.00 0.00 0.00 77 1009.0
20260506133247 17 165 11.3 14.5 0.00 0.00 0.00 77 1009.0
20260506132747 17 316 3.2 8.0 0.00 0.00 0.00 77 1009.0
20260506132247 17 203 0.0 3.2 0.00 0.00 0.00 78 1009.0
20260506131747 17 270 3.2 4.8 0.00 0.00 0.00 78 1009.0
20260506131247 17 160 3.2 6.4 0.00 0.00 0.00 78 1009.0
20260506130746 17 173 3.2 6.4 0.00 0.00 0.00 79 1009.0
20260506130249 17 159 4.8 11.3 0.00 0.00 0.00 79 1009.0
20260506125750 17 182 0.0 4.8 0.00 0.00 0.00 79 1010.0
20260506125246 17 356 1.6 3.2 0.00 0.00 0.00 79 1010.0
20260506124746 17 177 4.8 9.7 0.00 0.00 0.00 79 1010.0
20260506124246 17 185 3.2 9.7 0.00 0.00 0.00 79 1010.0
20260506123747 17 47 1.6 3.2 0.00 0.00 0.00 79 1010.0
20260506123247 17 63 1.6 4.8 0.00 0.00 0.00 79 1010.0
20260506122747 17 229 0.0 3.2 0.00 0.00 0.00 79 1010.0
20260506122247 17 294 1.6 3.2 0.00 0.00 0.00 79 1010.0
20260506121746 17 205 1.6 4.8 0.00 0.00 0.00 79 1010.0
20260506121246 17 163 1.6 6.4 0.00 0.00 0.00 79 1010.0
20260506120746 17 187 1.6 6.4 0.00 0.00 0.00 79 1009.0
20260506115803 17 143 3.2 9.7 0.00 0.00 0.00 79 1010.0
20260506115246 17 159 9.7 12.9 0.00 0.00 0.00 79 1010.0
20260506114746 17 245 1.6 3.2 0.00 0.00 0.00 79 1010.0
20260506114247 17 224 3.2 4.8 0.00 0.00 0.00 79 1010.0
20260506113751 17 189 3.2 4.8 0.00 0.00 0.00 80 1010.0
20260506113249 16 150 1.6 4.8 0.00 0.00 0.00 81 1009.0
20260506112748 16 185 1.6 4.8 0.00 0.00 0.00 82 1010.0
20260506112250 16 169 4.8 6.4 0.00 0.00 0.00 83 1010.0
20260506111746 15 187 3.2 6.4 0.00 0.00 0.00 84 1010.0
20260506111250 15 139 1.6 4.8 0.00 0.00 0.00 85 1010.0
20260506110748 15 166 1.6 4.8 0.00 0.00 0.00 87 1010.0
20260506110249 15 0 0.0 0.0 0.00 0.00 0.00 87 1010.0
20260506105748 15 163 1.6 6.4 0.00 0.00 0.00 86 1010.0
20260506105249 15 0 0.0 0.0 0.00 0.00 0.00 86 1010.0
20260506104750 15 175 1.6 4.8 0.00 0.00 0.00 86 1010.0
20260506104250 15 192 1.6 4.8 0.00 0.00 0.00 86 1010.0
20260506103750 15 135 0.0 3.2 0.00 0.00 0.00 87 1010.0
20260506103248 14 171 3.2 4.8 0.00 0.00 0.00 87 1010.0
20260506102751 14 63 1.6 4.8 0.00 0.00 0.00 87 1010.0
20260506102246 14 0 0.0 0.0 0.00 0.00 0.00 88 1010.0
20260506101749 14 168 0.0 1.6 0.00 0.00 0.00 88 1010.0
20260506101251 14 173 0.0 1.6 0.00 0.00 0.00 88 1010.0
20260506100751 14 124 0.0 3.2 0.00 0.00 0.00 88 1010.0
20260506100256 13 162 1.6 3.2 0.00 0.00 0.00 89 1010.0
20260506095746 13 150 0.0 1.6 0.00 0.00 0.00 88 1010.0
20260506095247 13 150 0.0 1.6 0.00 0.00 0.00 89 1010.0
20260506094746 13 0 0.0 0.0 0.00 0.00 0.00 89 1010.0
20260506094247 13 0 0.0 0.0 0.00 0.00 0.00 88 1010.0
20260506093747 13 144 3.2 6.4 0.00 0.00 0.00 89 1010.0
20260506093247 13 223 0.0 1.6 0.00 0.00 0.00 89 1010.0
20260506092746 13 0 0.0 0.0 0.00 0.00 0.00 88 1010.0
20260506092247 13 0 0.0 0.0 0.00 0.00 0.00 88 1010.0
20260506091746 13 0 0.0 0.0 0.00 0.00 0.00 87 1010.0
20260506091249 14 0 0.0 0.0 0.00 0.00 0.00 87 1010.0
20260506090748 14 0 0.0 0.0 0.00 0.00 0.00 86 1010.0
20260506090247 14 0 0.0 0.0 0.00 0.00 0.00 85 1010.0
20260506085747 14 163 1.6 6.4 0.00 0.00 0.00 85 1010.0
20260506085246 14 170 0.0 0.0 0.00 0.00 0.00 85 1010.0
20260506084747 14 0 0.0 0.0 0.00 0.00 0.00 85 1010.0
20260506084247 14 133 1.6 3.2 0.00 0.00 0.00 85 1010.0
20260506083746 14 0 0.0 0.0 0.00 0.00 0.00 85 1010.0
20260506083246 14 0 0.0 0.0 0.00 0.00 0.00 84 1010.0
20260506082746 14 118 0.0 3.2 0.00 0.00 0.00 84 1010.0
20260506082246 15 170 0.0 3.2 0.00 0.00 0.00 84 1010.0
20260506081746 15 0 0.0 0.0 0.00 0.00 0.00 83 1010.0
20260506081246 15 0 0.0 0.0 0.00 0.00 0.00 83 1010.0
20260506080747 15 0 0.0 0.0 0.00 0.00 0.00 82 1010.0
20260506080246 15 0 0.0 0.0 0.00 0.00 0.00 82 1010.0
20260506073246 16 0 0.0 0.0 0.00 0.00 0.00 79 1010.0
20260506072747 16 178 1.6 3.2 0.00 0.00 0.00 79 1010.0
20260506072248 16 198 0.0 1.6 0.00 0.00 0.00 78 1010.0
20260506071747 16 0 0.0 0.0 0.00 0.00 0.00 78 1010.0
20260506071246 16 154 1.6 6.4 0.00 0.00 0.00 77 1010.0
20260506070747 16 142 1.6 9.7 0.00 0.00 0.00 77 1010.0
20260506070246 16 181 0.0 3.2 0.00 0.00 0.00 76 1010.0
20260506062246 17 180 4.8 8.0 0.00 0.00 0.00 73 1009.0
20260506061746 17 183 6.4 12.9 0.00 0.00 0.00 74 1009.0
20260506061247 17 184 0.0 4.8 0.00 0.00 0.00 74 1010.0
20260506060746 17 172 6.4 11.3 0.00 0.00 0.00 73 1010.0
20260506060246 17 167 4.8 12.9 0.00 0.00 0.00 73 1010.0
20260506051246 18 168 4.8 12.9 0.00 0.00 0.00 68 1010.0
20260506050746 18 228 3.2 6.4 0.00 0.00 0.00 67 1010.0
20260506050246 18 211 1.6 3.2 0.00 0.00 0.00 68 1010.0